Tracking 34408 objects as of 13-Jun-2026
HD Live streaming from Space Station
objects crossing your sky now

STARLINK-35059

Track STARLINK-35059 now!
10-day predictions
STARLINK-35059 is classified as:


NORAD ID: 65454
Int'l Code: 2025-194W
Perigee: 557.1 km
Apogee: 561.4 km
Inclination: 97.5 °
Period: 95.7 minutes
Semi major axis: 6930 km
RCS: Unknown
Launch date: September 3, 2025
Source: United States (US)
Launch site: AIR FORCE WESTERN TEST RANGE (AFWTR)
Your satellite tracking list
Your tracking list is empty




NASA's NSSDC Master Catalog

Two Line Element Set (TLE):
1 65454U 25194W   26164.12365232 -.00014782  00000-0 -10461-2 0  9996
2 65454  97.4736  18.2159 0003094  87.3503 272.8078 15.04794859 44026
Source of the keplerian elements: AFSPC